Year,Month,Day,Hour,Minute,Value (Times are PST for temperature in C)
2018,01,18,00,00,6.70
2018,01,18,00,01,6.70
2018,01,18,00,02,6.70
2018,01,18,00,03,6.70
2018,01,18,00,04,6.70
2018,01,18,00,05,6.70
2018,01,18,00,06,6.70
2018,01,18,00,07,6.70
2018,01,18,00,08,6.70
2018,01,18,00,09,6.70
2018,01,18,00,10,6.70
2018,01,18,00,11,6.70
2018,01,18,00,12,6.70
2018,01,18,00,13,6.70
2018,01,18,00,14,6.70
2018,01,18,00,15,6.70
2018,01,18,00,16,6.70
2018,01,18,00,17,6.70
2018,01,18,00,18,6.70
2018,01,18,00,19,6.70
2018,01,18,00,20,6.70
2018,01,18,00,21,6.70
2018,01,18,00,22,6.70
2018,01,18,00,23,6.70
2018,01,18,00,24,6.80
2018,01,18,00,25,6.80
2018,01,18,00,26,6.80
2018,01,18,00,27,6.80
2018,01,18,00,28,6.80
2018,01,18,00,29,6.80
2018,01,18,00,30,6.90
2018,01,18,00,31,6.90
2018,01,18,00,32,6.90
2018,01,18,00,33,6.90
2018,01,18,00,34,6.90
2018,01,18,00,35,6.90
2018,01,18,00,36,6.90
2018,01,18,00,37,7.00
2018,01,18,00,38,7.00
2018,01,18,00,39,7.00
2018,01,18,00,40,7.00
2018,01,18,00,41,7.10
2018,01,18,00,42,7.10
2018,01,18,00,43,7.10
2018,01,18,00,44,7.10
2018,01,18,00,45,7.10
2018,01,18,00,46,7.10
2018,01,18,00,47,7.10
2018,01,18,00,48,7.20
2018,01,18,00,49,7.20
2018,01,18,00,50,7.20
2018,01,18,00,51,7.30
2018,01,18,00,52,7.30
2018,01,18,00,53,7.30
2018,01,18,00,54,7.30
2018,01,18,00,55,7.30
2018,01,18,00,56,7.30
2018,01,18,00,57,7.30
2018,01,18,00,58,7.30
2018,01,18,00,59,7.30
2018,01,18,01,00,7.30
2018,01,18,01,01,7.30
2018,01,18,01,02,7.20
2018,01,18,01,03,7.20
2018,01,18,01,04,7.20
2018,01,18,01,05,7.10
2018,01,18,01,06,7.10
2018,01,18,01,07,7.00
2018,01,18,01,08,7.00
2018,01,18,01,09,6.90
2018,01,18,01,10,6.90
2018,01,18,01,11,6.80
2018,01,18,01,12,6.80
2018,01,18,01,13,6.80
2018,01,18,01,14,6.80
2018,01,18,01,15,6.70
2018,01,18,01,16,6.70
2018,01,18,01,17,6.70
2018,01,18,01,18,6.70
2018,01,18,01,19,6.70
2018,01,18,01,20,6.70
2018,01,18,01,21,6.70
2018,01,18,01,22,6.70
2018,01,18,01,23,6.70
2018,01,18,01,24,6.70
2018,01,18,01,25,6.70
2018,01,18,01,26,6.70
2018,01,18,01,27,6.70
2018,01,18,01,28,6.70
2018,01,18,01,29,6.70
2018,01,18,01,30,6.70
2018,01,18,01,31,6.70
2018,01,18,01,32,6.70
2018,01,18,01,33,6.70
2018,01,18,01,34,6.70
2018,01,18,01,35,6.70
2018,01,18,01,36,6.70
2018,01,18,01,37,6.80
2018,01,18,01,38,6.70
2018,01,18,01,39,6.70
2018,01,18,01,40,6.80
2018,01,18,01,41,6.80
2018,01,18,01,42,6.80
2018,01,18,01,43,6.70
2018,01,18,01,44,6.70
2018,01,18,01,45,6.70
2018,01,18,01,46,6.70
2018,01,18,01,47,6.80
2018,01,18,01,48,6.80
2018,01,18,01,49,6.80
2018,01,18,01,50,6.80
2018,01,18,01,51,6.80
2018,01,18,01,52,6.80
2018,01,18,01,53,6.80
2018,01,18,01,54,6.80
2018,01,18,01,55,6.80
2018,01,18,01,56,6.80
2018,01,18,01,57,6.80
2018,01,18,01,58,6.80
2018,01,18,01,59,6.80
2018,01,18,02,00,6.80
2018,01,18,02,01,6.80
2018,01,18,02,02,6.80
2018,01,18,02,03,6.80
2018,01,18,02,04,6.80
2018,01,18,02,05,6.80
2018,01,18,02,06,6.80
2018,01,18,02,07,6.80
2018,01,18,02,08,6.80
2018,01,18,02,09,6.80
2018,01,18,02,10,6.80
2018,01,18,02,11,6.80
2018,01,18,02,12,6.80
2018,01,18,02,13,6.80
2018,01,18,02,14,6.80
2018,01,18,02,15,6.80
2018,01,18,02,16,6.80
2018,01,18,02,17,6.70
2018,01,18,02,18,6.70
2018,01,18,02,19,6.70
2018,01,18,02,20,6.70
2018,01,18,02,21,6.70
2018,01,18,02,22,6.70
2018,01,18,02,23,6.70
2018,01,18,02,24,6.70
2018,01,18,02,25,6.70
2018,01,18,02,26,6.70
2018,01,18,02,27,6.70
2018,01,18,02,28,6.60
2018,01,18,02,29,6.60
2018,01,18,02,30,6.60
2018,01,18,02,31,6.60
2018,01,18,02,32,6.60
2018,01,18,02,33,6.60
2018,01,18,02,34,6.60
2018,01,18,02,35,6.60
2018,01,18,02,36,6.60
2018,01,18,02,37,6.60
2018,01,18,02,38,6.60
2018,01,18,02,39,6.60
2018,01,18,02,40,6.60
2018,01,18,02,41,6.60
2018,01,18,02,42,6.60
2018,01,18,02,43,6.60
2018,01,18,02,44,6.70
2018,01,18,02,45,6.70
2018,01,18,02,46,6.70
2018,01,18,02,47,6.60
2018,01,18,02,48,6.60
2018,01,18,02,49,6.60
2018,01,18,02,50,6.60
2018,01,18,02,51,6.60
2018,01,18,02,52,6.60
2018,01,18,02,53,6.60
2018,01,18,02,54,6.60
2018,01,18,02,55,6.60
2018,01,18,02,56,6.60
2018,01,18,02,57,6.60
2018,01,18,02,58,6.60
2018,01,18,02,59,6.60
2018,01,18,03,00,6.60
2018,01,18,03,01,6.60
2018,01,18,03,02,6.60
2018,01,18,11,03,6.60
2018,01,18,11,04,6.60
2018,01,18,11,05,6.70
2018,01,18,11,06,6.70
2018,01,18,11,07,6.70
2018,01,18,11,08,6.70
2018,01,18,11,09,6.70
2018,01,18,11,10,6.70
2018,01,18,11,11,6.70
2018,01,18,11,12,6.70
2018,01,18,11,13,6.70
2018,01,18,11,14,6.70
2018,01,18,11,15,6.70
2018,01,18,11,16,6.70
2018,01,18,11,17,6.70
2018,01,18,11,18,6.80
2018,01,18,11,19,6.80
2018,01,18,11,20,6.80
2018,01,18,11,21,6.80
2018,01,18,11,22,6.80
2018,01,18,11,23,6.90
2018,01,18,11,24,6.90
2018,01,18,11,25,6.90
2018,01,18,11,26,6.90
2018,01,18,11,27,7.00
2018,01,18,11,28,7.00
2018,01,18,11,29,7.00
2018,01,18,11,30,7.00
2018,01,18,11,31,7.00
2018,01,18,11,32,7.00
2018,01,18,11,33,7.10
2018,01,18,11,34,7.10
2018,01,18,11,35,7.10
2018,01,18,11,36,7.10
2018,01,18,11,37,7.10
2018,01,18,11,38,7.20
2018,01,18,11,39,7.20
2018,01,18,11,40,7.20
2018,01,18,11,41,7.20
2018,01,18,11,42,7.20
2018,01,18,11,43,7.20
2018,01,18,11,44,7.10
2018,01,18,11,45,7.10
2018,01,18,11,46,7.10
2018,01,18,11,47,7.10
2018,01,18,11,48,7.00
2018,01,18,11,49,7.00
2018,01,18,11,50,7.00
2018,01,18,11,51,7.00
2018,01,18,11,52,7.00
2018,01,18,11,53,7.00
2018,01,18,11,54,6.90
2018,01,18,11,55,6.90
2018,01,18,11,56,6.90
2018,01,18,11,57,6.90
2018,01,18,11,58,6.90
2018,01,18,11,59,6.80
2018,01,18,12,00,6.80
2018,01,18,12,01,6.80
2018,01,18,12,02,6.80
2018,01,18,12,03,6.80
2018,01,18,12,04,6.80
2018,01,18,12,05,6.70
2018,01,18,12,06,6.70
2018,01,18,12,07,6.70
2018,01,18,12,08,6.70
2018,01,18,12,09,6.70
2018,01,18,12,10,6.70
2018,01,18,12,11,6.70
2018,01,18,12,12,6.70
2018,01,18,12,13,6.70
2018,01,18,12,14,6.70
2018,01,18,12,15,6.70
2018,01,18,12,16,6.80
2018,01,18,12,17,6.80
2018,01,18,12,18,6.80
2018,01,18,12,19,6.70
2018,01,18,12,20,6.70
2018,01,18,12,21,6.70
2018,01,18,12,22,6.70
2018,01,18,12,23,6.80
2018,01,18,12,24,6.80
2018,01,18,12,25,6.70
2018,01,18,12,26,6.70
2018,01,18,12,27,6.70
2018,01,18,12,28,6.80
2018,01,18,12,29,6.80
2018,01,18,12,30,6.80
2018,01,18,12,31,6.80
2018,01,18,12,32,6.80
2018,01,18,12,33,6.80
2018,01,18,12,34,6.80
2018,01,18,12,35,6.80
2018,01,18,12,36,6.80
2018,01,18,12,37,6.80
2018,01,18,12,38,6.80
2018,01,18,12,39,6.80
2018,01,18,12,40,6.80
2018,01,18,12,41,6.80
2018,01,18,12,42,6.80
2018,01,18,12,43,6.80
2018,01,18,12,44,6.80
2018,01,18,12,45,6.80
2018,01,18,12,46,6.80
2018,01,18,12,47,6.70
2018,01,18,12,48,6.80
2018,01,18,12,49,6.80
2018,01,18,12,50,6.80
2018,01,18,12,51,6.80
2018,01,18,12,52,6.80
2018,01,18,12,53,6.80
2018,01,18,12,54,6.90
2018,01,18,12,55,6.90
2018,01,18,12,56,6.90
2018,01,18,12,57,7.00
2018,01,18,12,58,7.00
2018,01,18,12,59,7.00
2018,01,18,13,00,7.00
2018,01,18,13,01,7.00
2018,01,18,13,02,6.90
2018,01,18,13,03,6.90
2018,01,18,13,04,6.90
2018,01,18,13,05,7.00
2018,01,18,13,06,7.00
2018,01,18,13,07,7.00
2018,01,18,13,08,7.00
2018,01,18,13,09,7.00
2018,01,18,13,10,7.00
2018,01,18,13,11,6.90
2018,01,18,13,12,6.90
2018,01,18,13,13,6.90
2018,01,18,13,14,6.80
2018,01,18,13,15,6.80
2018,01,18,13,16,6.80
2018,01,18,13,17,6.80
2018,01,18,13,18,6.80
2018,01,18,13,19,6.80
2018,01,18,13,20,6.80
2018,01,18,13,21,6.80
2018,01,18,13,22,6.80
2018,01,18,13,23,6.80
2018,01,18,13,24,6.80
2018,01,18,13,25,6.80
2018,01,18,13,26,6.90
2018,01,18,13,27,6.90
2018,01,18,13,28,6.90
2018,01,18,13,29,6.90
2018,01,18,13,30,7.00
2018,01,18,13,31,7.00
2018,01,18,13,32,7.00
2018,01,18,13,33,7.10
2018,01,18,13,34,7.10
2018,01,18,13,35,7.10
2018,01,18,13,36,7.10
2018,01,18,13,37,7.10
2018,01,18,13,38,7.10
2018,01,18,13,39,7.10
2018,01,18,13,40,7.10
2018,01,18,13,41,7.10
2018,01,18,13,42,7.10
2018,01,18,13,43,7.10
2018,01,18,13,44,7.10
2018,01,18,13,45,7.10
2018,01,18,13,46,7.10
2018,01,18,13,47,7.10
2018,01,18,13,48,7.10
2018,01,18,13,49,7.10
2018,01,18,13,50,7.10
2018,01,18,13,51,7.20
2018,01,18,13,52,7.10
2018,01,18,13,53,7.10
2018,01,18,13,54,7.10
2018,01,18,13,55,7.10
2018,01,18,13,56,7.10
2018,01,18,13,57,7.10
2018,01,18,13,58,7.10
2018,01,18,13,59,7.20
2018,01,18,14,00,7.20
2018,01,18,14,01,7.20
2018,01,18,14,02,7.10
2018,01,18,14,03,7.10
2018,01,18,14,04,7.10
2018,01,18,14,05,7.10
2018,01,18,14,06,7.10
2018,01,18,14,07,7.10
2018,01,18,14,08,7.00
2018,01,18,14,09,7.00
2018,01,18,14,10,7.00
2018,01,18,14,11,6.90
2018,01,18,14,12,6.90
2018,01,18,14,13,6.80
2018,01,18,14,14,6.80
2018,01,18,14,15,6.80
2018,01,18,14,16,6.70
2018,01,18,14,17,6.70
2018,01,18,14,18,6.70
2018,01,18,14,19,6.70
2018,01,18,14,20,6.70
2018,01,18,14,21,6.70
2018,01,18,14,22,6.70
2018,01,18,14,23,6.60
2018,01,18,14,24,6.60
2018,01,18,14,25,6.60
2018,01,18,14,26,6.70
2018,01,18,14,27,6.70
2018,01,18,14,28,6.70
2018,01,18,14,29,6.70
2018,01,18,14,30,6.70
2018,01,18,14,31,6.70
2018,01,18,14,32,6.70
2018,01,18,14,33,6.70
2018,01,18,14,34,6.70
2018,01,18,14,35,6.70
2018,01,18,14,36,6.70
2018,01,18,14,37,6.70
2018,01,18,14,38,6.70
2018,01,18,14,39,6.70
2018,01,18,14,40,6.70
2018,01,18,14,41,6.80
2018,01,18,14,42,6.80
2018,01,18,14,43,6.80
2018,01,18,14,44,6.80
2018,01,18,14,45,6.80
2018,01,18,14,46,6.80
2018,01,18,14,47,6.80
2018,01,18,14,48,6.90
2018,01,18,14,49,6.90
2018,01,18,14,50,6.90
2018,01,18,14,51,6.90
2018,01,18,14,52,6.90
2018,01,18,14,53,6.90
2018,01,18,14,54,6.90
2018,01,18,14,55,6.90
2018,01,18,14,56,6.90
2018,01,18,14,57,6.90
2018,01,18,14,58,6.90
2018,01,18,14,59,6.90
2018,01,18,15,00,6.90
2018,01,18,15,01,6.90
2018,01,18,15,02,6.90
2018,01,18,15,03,6.90
2018,01,18,15,04,6.90
2018,01,18,15,05,6.90
2018,01,18,15,06,6.90
2018,01,18,15,07,6.90
2018,01,18,15,08,6.90
2018,01,18,15,09,6.90
2018,01,18,15,10,6.90
2018,01,18,15,11,6.90
2018,01,18,15,12,6.90
2018,01,18,15,13,6.90
2018,01,18,15,14,6.90
2018,01,18,15,15,6.90
2018,01,18,15,16,6.90
2018,01,18,15,17,6.90
2018,01,18,15,18,7.00
2018,01,18,15,19,7.00
2018,01,18,15,20,7.00
2018,01,18,15,21,7.00
2018,01,18,15,22,7.00
2018,01,18,15,23,7.00
2018,01,18,15,24,7.10
2018,01,18,15,25,7.10
2018,01,18,15,26,7.10
2018,01,18,15,27,7.10
2018,01,18,15,28,7.10
2018,01,18,15,29,7.10
2018,01,18,15,30,7.00
2018,01,18,15,31,7.00
2018,01,18,15,32,7.00
2018,01,18,15,33,7.00
2018,01,18,15,34,6.90
2018,01,18,15,35,6.90
2018,01,18,15,36,6.90
2018,01,18,15,37,6.80
2018,01,18,15,38,6.80
2018,01,18,15,39,6.80
2018,01,18,15,40,6.80
2018,01,18,15,41,6.80
2018,01,18,15,42,6.70
2018,01,18,15,43,6.70
2018,01,18,15,44,6.70
2018,01,18,15,45,6.70
2018,01,18,15,46,6.70
2018,01,18,15,47,6.60
2018,01,18,15,48,6.60
2018,01,18,15,49,6.60
2018,01,18,15,50,6.60
2018,01,18,15,51,6.60
2018,01,18,15,52,6.60
2018,01,18,15,53,6.50
2018,01,18,15,54,6.50
2018,01,18,15,55,6.50
2018,01,18,15,56,6.50
2018,01,18,15,57,6.50
2018,01,18,15,58,6.50
2018,01,18,15,59,6.50
2018,01,18,16,00,6.50
2018,01,18,16,01,6.50
2018,01,18,16,02,6.50
2018,01,18,16,03,6.50
2018,01,18,16,04,6.50
2018,01,18,16,05,6.50
2018,01,18,16,06,6.50
2018,01,18,16,07,6.50
2018,01,18,16,08,6.50
2018,01,18,16,09,6.50
2018,01,18,16,10,6.50
2018,01,18,16,11,6.50
2018,01,18,16,12,6.50
2018,01,18,16,13,6.50
2018,01,18,16,14,6.50
2018,01,18,16,15,6.40
2018,01,18,16,16,6.40
2018,01,18,16,17,6.40
2018,01,18,16,18,6.40
2018,01,18,16,19,6.40
2018,01,18,16,20,6.30
2018,01,18,16,21,6.30
2018,01,18,16,22,6.30
2018,01,18,16,23,6.30
2018,01,18,16,24,6.20
2018,01,18,16,25,6.20
2018,01,18,16,26,6.20
2018,01,18,16,27,6.20
2018,01,18,16,28,6.20
2018,01,18,16,29,6.10
2018,01,18,16,30,6.10
2018,01,18,16,31,6.10
2018,01,18,16,32,6.10
2018,01,18,16,33,6.10
2018,01,18,16,34,6.10
2018,01,18,16,35,6.20
2018,01,18,16,36,6.20
2018,01,18,16,37,6.10
2018,01,18,16,38,6.10
2018,01,18,16,39,6.20
2018,01,18,16,40,6.10
2018,01,18,16,41,6.10
2018,01,18,16,42,6.10
2018,01,18,16,43,6.10
2018,01,18,16,44,6.10
2018,01,18,16,45,6.10
2018,01,18,16,46,6.10
2018,01,18,16,47,6.10
2018,01,18,16,48,6.10
2018,01,18,16,49,6.00
2018,01,18,16,50,6.00
2018,01,18,16,51,6.00
2018,01,18,16,52,6.10
2018,01,18,16,53,6.10
2018,01,18,16,54,6.10
2018,01,18,16,55,6.10
2018,01,18,16,56,6.10
2018,01,18,16,57,6.10
2018,01,18,16,58,6.10
2018,01,18,16,59,6.10
2018,01,18,17,00,6.10
2018,01,18,17,01,6.10
2018,01,18,17,02,6.10
2018,01,18,17,03,6.10
2018,01,18,17,04,6.20
2018,01,18,17,05,6.20
2018,01,18,17,06,6.20
2018,01,18,17,07,6.20
2018,01,18,17,08,6.20
2018,01,18,17,09,6.20
2018,01,18,17,10,6.30
2018,01,18,17,11,6.30
2018,01,18,17,12,6.30
2018,01,18,17,13,6.30
2018,01,18,17,14,6.30
2018,01,18,17,15,6.30
2018,01,18,17,16,6.30
2018,01,18,17,17,6.30
2018,01,18,17,18,6.30
2018,01,18,17,19,6.30
2018,01,18,17,20,6.20
2018,01,18,17,21,6.20
2018,01,18,17,22,6.20
2018,01,18,17,23,6.20
2018,01,18,17,24,6.20
2018,01,18,17,25,6.10
2018,01,18,17,26,6.10
2018,01,18,17,27,6.10
2018,01,18,17,28,6.10
2018,01,18,17,29,6.10
2018,01,18,17,30,6.00
2018,01,18,17,31,6.00
2018,01,18,17,32,6.00
2018,01,18,17,33,6.00
2018,01,18,17,34,6.00
2018,01,18,17,35,6.00
2018,01,18,17,36,6.00
2018,01,18,17,37,6.00
2018,01,18,17,38,6.00
2018,01,18,17,39,6.00
2018,01,18,17,40,6.00
2018,01,18,17,41,6.00
2018,01,18,17,42,6.00
2018,01,18,17,43,6.00
2018,01,18,17,44,6.00
2018,01,18,17,45,6.00
2018,01,18,17,46,6.00
2018,01,18,17,47,6.10
2018,01,18,17,48,6.10
2018,01,18,17,49,6.10
2018,01,18,17,50,6.10
2018,01,18,17,51,6.10
2018,01,18,17,52,6.10
2018,01,18,17,53,6.10
2018,01,18,17,54,6.10
2018,01,18,17,55,6.10
2018,01,18,17,56,6.10
2018,01,18,17,57,6.10
2018,01,18,17,58,6.10
2018,01,18,17,59,6.10
2018,01,18,18,00,6.10
2018,01,18,18,01,6.10
2018,01,18,18,02,6.10
2018,01,18,18,03,6.10
2018,01,18,18,04,6.10
2018,01,18,18,05,6.10
2018,01,18,18,06,6.10
2018,01,18,18,07,6.10
2018,01,18,18,08,6.10
2018,01,18,18,09,6.10
2018,01,18,18,10,6.10
2018,01,18,18,11,6.10
2018,01,18,18,12,6.10
2018,01,18,18,13,6.10
2018,01,18,18,14,6.10
2018,01,18,18,15,6.10
2018,01,18,18,16,6.10
2018,01,18,18,17,6.10
2018,01,18,18,18,6.10
2018,01,18,18,19,6.10
2018,01,18,18,20,6.10
2018,01,18,18,21,6.10
2018,01,18,18,22,6.10
2018,01,18,18,23,6.00
2018,01,18,18,24,6.00
2018,01,18,18,25,6.00
2018,01,18,18,26,6.00
2018,01,18,18,27,5.90
2018,01,18,18,28,5.90
2018,01,18,18,29,5.90
2018,01,18,18,30,5.90
2018,01,18,18,31,5.80
2018,01,18,18,32,5.80
2018,01,18,18,33,5.80
2018,01,18,18,34,5.80
2018,01,18,18,35,5.80
2018,01,18,18,36,5.80
2018,01,18,18,37,5.80
2018,01,18,18,38,5.80
2018,01,18,18,39,5.80
2018,01,18,18,40,5.80
2018,01,18,18,41,5.80
2018,01,18,18,42,5.80
2018,01,18,18,43,5.80
2018,01,18,18,44,5.80
2018,01,18,18,45,5.70
2018,01,18,18,46,5.70
2018,01,18,18,47,5.70
2018,01,18,18,48,5.70
2018,01,18,18,49,5.70
2018,01,18,18,50,5.70
2018,01,18,18,51,5.70
2018,01,18,18,52,5.70
2018,01,18,18,53,5.70
2018,01,18,18,54,5.60
2018,01,18,18,55,5.60
2018,01,18,18,56,5.60
2018,01,18,18,57,5.60
2018,01,18,18,58,5.70
2018,01,18,18,59,5.70
2018,01,18,19,00,5.70
2018,01,18,19,01,5.70
2018,01,18,19,02,5.70
2018,01,18,19,03,5.80
2018,01,18,19,04,5.80
2018,01,18,19,05,5.90
2018,01,18,19,06,5.90
2018,01,18,19,07,5.90
2018,01,18,19,08,5.90
2018,01,18,19,09,6.00
2018,01,18,19,10,6.00
2018,01,18,19,11,5.90
2018,01,18,19,12,5.90
2018,01,18,19,13,5.90
2018,01,18,19,14,5.90
2018,01,18,19,15,5.90
2018,01,18,19,16,5.80
2018,01,18,19,17,5.80
2018,01,18,19,18,5.80
2018,01,18,19,19,5.80
2018,01,18,19,20,5.80
2018,01,18,19,21,5.80
2018,01,18,19,22,5.80
2018,01,18,19,23,5.80
2018,01,18,19,24,5.80
2018,01,18,19,25,5.80
2018,01,18,19,26,5.80
2018,01,18,19,27,5.90
2018,01,18,19,28,5.90
2018,01,18,19,29,5.90
2018,01,18,19,30,5.90
2018,01,18,19,31,5.90
2018,01,18,19,32,5.90
2018,01,18,19,33,5.90
2018,01,18,19,34,5.90
2018,01,18,19,35,6.00
2018,01,18,19,36,6.00
2018,01,18,19,37,6.00
2018,01,18,19,38,6.00
2018,01,18,19,39,6.10
2018,01,18,19,40,6.10
2018,01,18,19,41,6.10
2018,01,18,19,42,6.10
2018,01,18,19,43,6.20
2018,01,18,19,44,6.20
2018,01,18,19,45,6.30
2018,01,18,19,46,6.30
2018,01,18,19,47,6.40
2018,01,18,19,48,6.40
2018,01,18,19,49,6.50
2018,01,18,19,50,6.50
2018,01,18,19,51,6.50
2018,01,18,19,52,6.60
2018,01,18,19,53,6.60
2018,01,18,19,54,6.60
2018,01,18,19,55,6.60
2018,01,18,19,56,6.60
2018,01,18,19,57,6.60
2018,01,18,19,58,6.60
2018,01,18,19,59,6.60
2018,01,18,20,00,6.60
2018,01,18,20,01,6.60
2018,01,18,20,02,6.60
2018,01,18,20,03,6.60
2018,01,18,20,04,6.60
2018,01,18,20,05,6.60
2018,01,18,20,06,6.60
2018,01,18,20,07,6.60
2018,01,18,20,08,6.60
2018,01,18,20,09,6.60
2018,01,18,20,10,6.60
2018,01,18,20,11,6.60
2018,01,18,20,12,6.60
2018,01,18,20,13,6.60
2018,01,18,20,14,6.60
2018,01,18,20,15,6.60
2018,01,18,20,16,6.60
2018,01,18,20,17,6.60
2018,01,18,20,18,6.60
2018,01,18,20,19,6.70
2018,01,18,20,20,6.70
2018,01,18,20,21,6.70
2018,01,18,20,22,6.70
2018,01,18,20,23,6.70
2018,01,18,20,24,6.70
2018,01,18,20,25,6.70
2018,01,18,20,26,6.70
2018,01,18,20,27,6.70
2018,01,18,20,28,6.70
2018,01,18,20,29,6.70
2018,01,18,20,30,6.70
2018,01,18,20,31,6.70
2018,01,18,20,32,6.70
2018,01,18,20,33,6.70
2018,01,18,20,34,6.60
2018,01,18,20,35,6.60
2018,01,18,20,36,6.60
2018,01,18,20,37,6.60
2018,01,18,20,38,6.60
2018,01,18,20,39,6.60
2018,01,18,20,40,6.60
2018,01,18,20,41,6.60
2018,01,18,20,42,6.60
2018,01,18,20,43,6.60
2018,01,18,20,44,6.60
2018,01,18,20,45,6.50
2018,01,18,20,46,6.50
2018,01,18,20,47,6.50
2018,01,18,20,48,6.40
2018,01,18,20,49,6.40
2018,01,18,20,50,6.30
2018,01,18,20,51,6.30
2018,01,18,20,52,6.30
2018,01,18,20,53,6.20
2018,01,18,20,54,6.20
2018,01,18,20,55,6.20
2018,01,18,20,56,6.10
2018,01,18,20,57,6.10
2018,01,18,20,58,6.20
2018,01,18,20,59,6.20
2018,01,18,21,00,6.20
2018,01,18,21,01,6.20
2018,01,18,21,02,6.20
2018,01,18,21,03,6.20
2018,01,18,21,04,6.20
2018,01,18,21,05,6.20
2018,01,18,21,06,6.20
2018,01,18,21,07,6.20
2018,01,18,21,08,6.10
2018,01,18,21,09,6.10
2018,01,18,21,10,6.10
2018,01,18,21,11,6.10
2018,01,18,21,12,6.10
2018,01,18,21,13,6.10
2018,01,18,21,14,6.00
2018,01,18,21,15,6.00
2018,01,18,21,16,6.00
2018,01,18,21,17,6.00
2018,01,18,21,18,6.00
2018,01,18,21,19,6.00
2018,01,18,21,20,6.10
2018,01,18,21,21,6.10
2018,01,18,21,22,6.10
2018,01,18,21,23,6.20
2018,01,18,21,24,6.20
2018,01,18,21,25,6.20
2018,01,18,21,26,6.30
2018,01,18,21,27,6.30
2018,01,18,21,28,6.30
2018,01,18,21,29,6.30
2018,01,18,21,30,6.30
2018,01,18,21,31,6.30
2018,01,18,21,32,6.30
2018,01,18,21,33,6.30
2018,01,18,21,34,6.30
2018,01,18,21,35,6.30
2018,01,18,21,36,6.30
2018,01,18,21,37,6.30
2018,01,18,21,38,6.30
2018,01,18,21,39,6.30
2018,01,18,21,40,6.30
2018,01,18,21,41,6.30
2018,01,18,21,42,6.30
2018,01,18,21,43,6.30
2018,01,18,21,44,6.30
2018,01,18,21,45,6.30
2018,01,18,21,46,6.30
2018,01,18,21,47,6.20
2018,01,18,21,48,6.20
2018,01,18,21,49,6.20
2018,01,18,21,50,6.20
2018,01,18,21,51,6.20
2018,01,18,21,52,6.20
2018,01,18,21,53,6.20
2018,01,18,21,54,6.20
2018,01,18,21,55,6.20
2018,01,18,21,56,6.20
2018,01,18,21,57,6.20
2018,01,18,21,58,6.20
2018,01,18,21,59,6.20
2018,01,18,22,00,6.20
2018,01,18,22,01,6.20
2018,01,18,22,02,6.20
2018,01,18,22,03,6.20
2018,01,18,22,04,6.20
2018,01,18,22,05,6.20
2018,01,18,22,06,6.20
2018,01,18,22,07,6.20
2018,01,18,22,08,6.20
2018,01,18,22,09,6.10
2018,01,18,22,10,6.10
2018,01,18,22,11,6.10
2018,01,18,22,12,6.10
2018,01,18,22,13,6.10
2018,01,18,22,14,6.10
2018,01,18,22,15,6.10
2018,01,18,22,16,6.10
2018,01,18,22,17,6.10
2018,01,18,22,18,6.10
2018,01,18,22,19,6.20
2018,01,18,22,20,6.20
2018,01,18,22,21,6.20
2018,01,18,22,22,6.20
2018,01,18,22,23,6.20
2018,01,18,22,24,6.20
2018,01,18,22,25,6.20
2018,01,18,22,26,6.20
2018,01,18,22,27,6.20
2018,01,18,22,28,6.20
2018,01,18,22,29,6.20
2018,01,18,22,30,6.20
2018,01,18,22,31,6.20
2018,01,18,22,32,6.20
2018,01,18,22,33,6.20
2018,01,18,22,34,6.20
2018,01,18,22,35,6.10
2018,01,18,22,36,6.10
2018,01,18,22,37,6.10
2018,01,18,22,38,6.10
2018,01,18,22,39,6.10
2018,01,18,22,40,6.10
2018,01,18,22,41,6.10
2018,01,18,22,42,6.10
2018,01,18,22,43,6.10
2018,01,18,22,44,6.00
2018,01,18,22,45,6.00
2018,01,18,22,46,6.00
2018,01,18,22,47,5.90
2018,01,18,22,48,5.90
2018,01,18,22,49,5.90
2018,01,18,22,50,5.90
2018,01,18,22,51,5.90
2018,01,18,22,52,5.90
2018,01,18,22,53,5.90
2018,01,18,22,54,5.90
2018,01,18,22,55,5.90
2018,01,18,22,56,5.90
2018,01,18,22,57,5.90
2018,01,18,22,58,5.90
2018,01,18,22,59,5.90
2018,01,18,23,00,5.90
2018,01,18,23,01,5.90
2018,01,18,23,02,5.90
2018,01,18,23,03,5.90
2018,01,18,23,04,6.00
2018,01,18,23,05,6.00
2018,01,18,23,06,5.90
2018,01,18,23,07,5.90
2018,01,18,23,08,5.90
2018,01,18,23,09,5.90
2018,01,18,23,10,5.80
2018,01,18,23,11,5.80
2018,01,18,23,12,5.80
2018,01,18,23,13,5.70
2018,01,18,23,14,5.70
2018,01,18,23,15,5.70
2018,01,18,23,16,5.70
2018,01,18,23,17,5.70
2018,01,18,23,18,5.70
2018,01,18,23,19,5.70
2018,01,18,23,20,5.70
2018,01,18,23,21,5.80
2018,01,18,23,22,5.80
2018,01,18,23,23,5.80
2018,01,18,23,24,5.90
2018,01,18,23,25,5.90
2018,01,18,23,26,5.90
2018,01,18,23,27,5.90
2018,01,18,23,28,5.90
2018,01,18,23,29,5.90
2018,01,18,23,30,6.00
2018,01,18,23,31,6.00
2018,01,18,23,32,6.00
2018,01,18,23,33,6.00
2018,01,18,23,34,6.00
2018,01,18,23,35,6.10
2018,01,18,23,36,6.10
2018,01,18,23,37,6.10
2018,01,18,23,38,6.10
2018,01,18,23,39,6.10
2018,01,18,23,40,6.10
2018,01,18,23,41,6.20
2018,01,18,23,42,6.20
2018,01,18,23,43,6.20
2018,01,18,23,44,6.20
2018,01,18,23,45,6.20
2018,01,18,23,46,6.10
2018,01,18,23,47,6.10
2018,01,18,23,48,6.10
2018,01,18,23,49,6.10
2018,01,18,23,50,6.10
2018,01,18,23,51,6.10
2018,01,18,23,52,6.10
2018,01,18,23,53,6.10
2018,01,18,23,54,6.10
2018,01,18,23,55,6.10
2018,01,18,23,56,6.10
2018,01,18,23,57,6.10
2018,01,18,23,58,6.10
2018,01,18,23,59,6.10
